#timestamp,LO_Frequency,Hit 
1503921615.0,286046999.5,N
1503921615.9,286046999.5,N
1503921635.9,286047002.7,N
1503921655.7,286046999.9,N
1503921675.6,286046999.9,N
1503921695.4,286047002.7,N
1503921715.2,286047002.8,N
1503921735.0,286047004.0,N
1503921735.9,286047004.0,N
1503921755.8,286047003.3,N
1503921775.6,286047003.6,N
1503921795.4,286047004.2,N
1503921815.3,286047002.6,N
1503921835.1,286047004.3,N
1503921855.8,286047002.1,N
1503921875.7,286046998.4,N
1503921895.5,286046998.6,N
1503921915.3,286047000.4,N
1503921935.2,286047002.4,N
1503921955.9,286047000.0,N
1503921975.7,286047002.1,N
1503921995.6,286047002.7,N
1503922015.4,286046999.2,N
1503922035.2,286046996.3,N
1503922055.1,286046995.2,N
1503922056.0,286046995.2,N
1503922075.8,286046991.7,N
1503922095.6,286046994.8,N
1503922115.5,286046997.8,N
1503922135.3,286046997.5,N
1503922155.1,286046993.9,N
1503922175.8,286046995.8,N
1503922195.7,286046997.5,N
1503922215.5,286046996.3,N
1503922235.3,286046995.2,N
1503922255.2,286046995.7,N
1503922275.9,286046999.1,N
1503922295.7,286046996.9,N
1503922315.6,286046998.0,N
1503922335.4,286046993.7,N
1503922355.2,286046992.3,N
1503922375.1,286046992.5,N
1503922376.0,286046992.5,N
1503922395.8,286046992.7,N
1503922415.6,286046990.3,P
1503922435.5,286046991.7,N
1503922455.3,286046990.7,P
1503922475.1,286046990.8,P
1503922495.9,286046997.8,N
1503922515.7,286046994.1,N
1503922535.5,286046995.7,N
1503922555.4,286046997.4,N
1503922575.2,286046995.4,N
1503922595.0,286046992.2,P
1503922596.0,286046992.2,P
1503922615.8,286046997.9,N
1503922635.6,286046995.9,N
1503922655.4,286046994.7,N
1503922675.3,286046992.7,P
1503922695.1,286046996.8,P
1503922715.9,286046997.2,N
1503922735.7,286046998.9,N
1503922755.5,286047000.4,N
1503922775.3,286046998.4,N
1503922795.2,286047000.7,N
1503922815.0,286047001.8,N
1503922815.9,286047001.8,N
1503922835.7,286047004.0,N
1503922855.6,286047000.6,N
1503922875.4,286047000.3,N
1503922895.2,286047004.1,N
1503922915.1,286047004.3,N
1503922916.0,286047004.3,N
1503922935.8,286047000.9,N
1503922955.6,286046998.3,N
1503922975.5,286047002.7,N
1503922995.3,286047000.3,N
1503923015.1,286047001.9,N
1503923035.9,286047001.9,N
1503923055.7,286046999.8,N
1503923075.5,286047000.0,N
1503923095.4,286047000.8,N
1503923115.2,286046999.7,N
1503923135.0,286047001.0,N
1503923135.9,286047001.0,N
1503923155.7,286046998.2,N
1503923175.6,286046998.1,N
1503923195.4,286047000.8,N
1503923215.2,286046999.3,N
1503923235.1,286046998.5,N
1503923236.0,286046998.5,N
1503923255.8,286046997.1,N
1503923275.6,286046997.4,N
1503923295.5,286046999.4,N
1503923315.3,286046998.6,N
1503923335.1,286047000.6,N
1503923355.9,286047002.6,N
1503923375.7,286046999.8,N
1503923395.5,286047000.3,N
1503923415.4,286047003.7,N
1503923435.2,286047004.3,N
1503923455.0,286047004.4,N
1503923455.9,286047004.4,N
1503923475.8,286047005.8,N
1503923495.6,286047005.5,N
1503923515.4,286047005.0,N
1503923535.3,286047005.0,N
1503923555.1,286047005.3,N
1503923556.0,286047005.3,N
1503923575.8,286047003.6,N
1503923595.7,286047003.8,N
1503923615.5,286047005.0,N
1503923635.3,286047006.6,N
1503923655.1,286047008.2,N
1503923675.9,286047008.0,N
1503923695.7,286047009.2,N
1503923715.5,286047006.3,N
1503923735.4,286047007.9,N
1503923755.2,286047010.8,P
1503923775.0,286047004.9,N
1503923776.0,286047004.9,N
1503923795.8,286047005.0,N
1503923815.6,286047009.1,P
1503923835.5,286047001.3,N
1503923855.3,286047004.2,N
1503923875.1,286047004.0,N
1503923895.9,286047002.7,N
1503923915.7,286047002.8,N
1503923935.5,286047000.4,N
1503923955.3,286047002.2,N
1503923975.2,286046999.2,N
1503923995.0,286046998.9,N
1503923995.9,286046998.9,N
1503924015.7,286046997.2,N
1503924035.6,286046997.3,N
1503924055.4,286046996.7,N
1503924075.2,286046995.1,N
1503924095.1,286046995.9,N
1503924096.0,286046995.9,N
1503924115.8,286046999.1,N
1503924135.6,286046999.2,N
1503924155.5,286046997.8,N
1503924175.3,286046996.9,N
1503924195.1,286046999.2,N
1503924215.9,286046997.0,N
1503924235.7,286046998.3,N
1503924255.5,286047000.0,N
1503924275.4,286047003.5,N
1503924295.2,286047005.6,N
1503924315.0,286047004.6,N
1503924315.9,286047004.6,N
1503924335.8,286047005.8,N
1503924355.6,286047003.5,N
1503924375.4,286047001.5,N
1503924395.2,286047001.4,N
1503924415.1,286047004.1,N
1503924416.0,286047004.1,N
1503924435.8,286047005.3,N
1503924455.6,286047000.0,N
1503924475.5,286046999.4,N
1503924495.3,286046995.1,N
1503924515.1,286046995.9,N
1503924535.9,286046992.3,N
1503924555.7,286046993.2,N
1503924575.5,286046990.4,N
1503924595.4,286046990.9,N
1503924615.2,286046990.1,N
1503924635.0,286046992.2,N
1503924635.9,286046992.2,N
1503924655.8,286046993.5,N
1503924675.6,286046994.2,N
1503924695.4,286046992.9,N
1503924715.3,286046991.9,N
1503924735.1,286046997.6,N
1503924736.0,286046997.6,N
1503924755.8,286046997.3,N
1503924775.7,286046996.5,N
1503924795.5,286046997.4,N
1503924815.3,286046995.1,N
1503924835.2,286046996.9,N
1503924855.9,286046998.3,N
1503924875.7,286046998.6,N
1503924895.6,286047001.4,N
1503924915.4,286047001.7,N
1503924935.2,286047003.1,N
1503924955.0,286046999.7,N
1503924956.0,286046999.7,N
1503924975.8,286047000.9,N
1503924995.6,286047002.4,N
1503925015.4,286047004.3,N
1503925035.3,286046999.8,N
1503925055.1,286047002.7,N
1503925075.8,286047002.9,N
1503925095.7,286047005.8,N
1503925115.5,286047004.3,N
1503925135.3,286047001.7,N
1503925155.2,286047003.4,N
1503925175.9,286047000.2,N
1503925195.7,286047000.1,N
